Wind_Speed
15 15 15 16 15 16 17 17 17 17 17 18 18 17 17 17 17 16 16 16 17 16 16 15 15 15 15 14 15 15 15 15 14 14 14 14 14 12 13 12 12 12 11
17 16 16 17 17 17 17 18 18 18 18 18 18 18 18 18 18 18 17 17 17 17 17 16 16 16 16 16 16 16 16 16 15 14 15 14 14 13 13 13 12 12 12
19 18 18 18 19 18 18 17 18 19 19 19 19 18 19 19 18 18 18 18 18 18 17 17 16 16 16 17 17 17 17 17 16 15 15 15 15 15 14 13 13 13 12
21 21 20 20 20 20 19 19 19 20 20 20 20 20 20 20 19 18 19 19 18 18 18 18 17 16 16 16 17 17 17 17 17 16 16 16 17 16 15 14 14 13 12
23 23 23 22 22 22 21 21 21 21 21 21 21 20 20 21 21 20 20 19 19 19 19 19 19 18 17 17 17 18 18 18 18 17 17 17 18 18 17 16 15 14 14
24 25 25 24 24 24 23 23 22 22 22 22 21 21 21 21 21 21 20 19 19 19 19 20 20 20 19 19 19 19 19 19 19 19 18 19 19 19 18 17 16 16 15
26 26 26 26 26 25 25 25 24 23 23 24 24 23 22 22 22 22 21 20 20 20 20 21 21 21 21 21 20 20 20 20 19 18 19 19 19 19 19 19 18 17 16
26 25 26 27 26 26 26 25 25 25 24 24 24 24 24 24 23 23 22 22 22 21 21 22 22 22 22 22 21 21 21 21 21 20 20 19 20 20 19 19 19 18 17
26 26 27 27 26 26 26 26 25 25 25 25 25 25 25 25 25 24 24 23 23 22 22 22 23 22 23 23 22 22 21 22 22 22 21 21 20 21 21 20 20 20 19
27 26 26 26 26 26 26 25 25 26 26 26 26 26 26 26 26 26 25 25 24 23 23 23 23 24 24 24 23 23 23 23 23 23 23 22 22 21 22 22 21 21 21
27 27 26 27 27 27 27 26 26 26 26 27 27 27 27 26 26 26 26 26 26 25 25 25 25 25 25 25 24 24 23 23 23 23 23 23 23 23 23 23 23 22 22
27 27 27 27 28 28 28 27 27 26 27 27 28 28 28 28 27 27 27 27 28 28 26 26 26 26 26 26 25 25 25 25 24 24 24 24 24 24 25 24 24 24 24
28 27 27 28 28 28 28 28 27 27 27 27 27 28 28 28 28 28 28 29 29 29 28 27 27 27 27 27 27 27 26 26 26 26 26 26 26 26 26 26 26 26 25
29 28 28 28 27 27 28 28 27 27 28 28 27 27 28 28 28 29 29 29 29 28 28 28 28 28 28 28 28 28 27 27 27 27 28 28 28 29 29 28 28 28 27
29 29 29 29 28 29 28 28 28 28 28 28 29 29 29 29 29 29 29 30 30 29 30 29 29 29 29 29 28 28 28 28 28 28 28 28 29 30 30 30 29 29 29
30 29 29 29 29 29 29 28 28 28 28 28 27 27 27 27 28 29 29 29 29 30 30 30 30 30 30 30 30 29 30 29 29 28 28 28 29 29 30 30 30 30 30
30 29 29 29 28 28 29 28 28 28 28 28 28 27 27 27 27 27 28 28 29 29 30 30 30 30 30 30 30 30 30 30 30 30 30 30 29 29 29 30 30 30 30
28 28 28 29 29 29 29 29 28 28 28 28 28 28 28 28 27 27 27 27 28 29 30 30 30 30 30 31 31 31 31 31 31 31 31 31 31 31 31 31 31 31 30
28 28 29 29 29 29 29 29 28 28 28 28 28 28 28 28 28 28 27 27 28 29 30 30 30 31 31 32 32 32 32 31 31 32 32 32 32 32 32 32 32 33 33
28 28 28 28 28 28 29 29 29 28 28 28 27 27 28 29 29 28 28 28 28 29 29 30 30 30 31 31 32 32 31 31 32 32 32 33 33 33 33 33 34 34 34
28 28 28 28 28 28 28 28 28 28 28 27 27 27 28 28 29 29 29 28 28 28 29 29 30 31 31 31 31 31 31 32 32 32 33 33 33 33 33 33 33 34 34
27 27 27 28 28 28 28 28 27 27 27 27 27 28 28 28 28 29 29 29 29 29 29 30 31 31 31 31 31 32 32 32 33 33 33 33 33 33 33 33 33 33 34
26 26 26 27 27 27 28 27 27 26 26 27 27 27 28 29 29 28 28 29 30 31 31 31 31 31 32 32 32 32 32 33 33 33 33 33 33 34 34 34 34 34 34
25 25 25 25 26 26 26 26 25 25 26 26 27 27 28 28 28 28 28 29 30 30 31 32 32 32 32 33 33 33 33 33 33 32 33 33 33 33 34 34 34 34 34
23 23 23 24 24 24 24 24 25 25 25 26 27 27 27 28 28 28 29 29 30 31 31 32 32 33 33 33 34 33 33 33 33 33 33 33 33 33 33 34 34 34 34
23 23 23 23 24 24 24 24 25 25 25 26 26 27 27 28 28 29 29 30 30 30 31 32 32 32 33 33 34 34 33 33 34 34 34 34 34 34 34 34 33 33 32
Wind_Direction
279 276 272 271 272 272 272 272 274 275 273 273 276 275 275 276 275 273 272 270 268 268 264 260 258 257 258 258 256 256 256 253 253 256 257 255 255 255 257 260 262 264 268
279 278 273 273 276 277 277 275 274 274 274 276 275 274 273 272 271 271 271 271 269 268 265 263 259 256 258 257 257 257 254 251 252 253 253 252 252 254 256 256 260 264 269
275 275 276 276 277 277 277 276 275 275 276 277 277 276 274 272 272 271 271 272 271 266 263 263 260 256 255 254 254 255 254 251 251 251 251 250 251 253 255 256 259 265 265
273 274 275 276 276 275 276 277 276 277 278 278 276 274 274 272 272 271 270 271 270 266 262 258 257 257 255 254 253 253 252 251 250 250 250 249 251 252 254 257 259 262 264
272 273 274 275 275 274 274 275 276 276 277 277 277 274 272 271 270 270 270 270 267 264 259 254 252 252 254 254 254 255 253 251 251 252 252 250 252 254 256 257 256 261 265
274 274 274 273 272 272 272 273 274 274 275 274 274 273 271 270 269 269 268 266 264 263 258 253 251 252 253 253 254 255 254 251 251 253 253 253 252 255 256 256 257 261 265
272 273 273 271 269 270 271 271 271 272 271 271 272 271 271 270 268 267 266 263 262 261 257 254 252 252 252 253 256 257 255 253 253 254 254 252 252 253 255 255 256 259 262
273 273 271 270 270 269 269 269 270 269 270 270 271 271 270 269 267 264 262 261 259 258 258 256 254 252 250 252 254 255 256 254 253 254 253 254 253 253 255 257 258 260 262
276 272 270 270 270 268 268 267 268 268 269 270 270 270 269 269 266 263 261 260 260 258 257 256 255 253 252 252 253 253 254 255 254 252 252 253 254 254 255 257 259 262 264
274 271 269 268 267 267 267 267 267 267 268 269 268 268 268 268 266 263 261 260 258 257 256 257 256 254 253 252 252 252 253 254 253 252 251 252 253 256 257 258 260 261 263
273 271 269 268 267 266 266 267 267 267 268 268 267 268 268 267 266 263 262 260 259 259 259 257 257 255 253 251 251 253 255 255 254 252 253 253 254 255 257 259 261 263 264
271 270 268 269 268 267 266 266 266 267 268 268 267 268 268 267 265 264 263 262 260 259 259 257 255 253 251 251 252 253 255 256 254 254 254 255 256 256 257 259 262 264 266
270 268 267 266 268 267 267 266 266 267 268 269 268 267 267 267 264 262 261 260 259 257 258 257 254 253 252 252 253 254 255 256 254 254 255 256 257 257 258 260 262 264 266
270 269 268 268 269 269 267 266 267 267 267 267 268 267 266 266 264 262 260 258 255 255 254 254 252 252 253 254 255 256 256 257 257 256 256 256 257 257 258 260 262 264 265
269 269 270 268 267 267 267 268 268 266 266 267 267 267 266 265 264 262 260 257 255 254 253 253 253 252 253 255 256 257 257 257 258 259 259 258 258 258 258 260 262 264 265
268 268 267 266 266 266 266 267 268 268 267 268 268 268 267 266 264 261 260 258 255 253 252 252 252 253 254 254 255 256 256 256 256 257 258 258 258 258 259 260 262 263 265
269 268 266 266 267 268 268 269 269 267 267 266 266 265 265 266 265 263 261 259 255 252 251 251 251 252 254 254 255 255 255 255 256 257 257 257 258 259 261 262 264 264 265
270 270 270 269 269 269 268 270 271 268 265 265 265 264 264 264 263 262 260 259 256 254 252 252 253 254 254 255 255 256 256 255 256 257 257 258 258 260 261 262 263 264 266
272 272 272 271 271 270 270 271 271 270 266 264 263 264 265 265 265 263 261 262 259 255 253 253 254 255 255 256 256 256 257 255 256 257 258 259 260 261 261 262 262 263 265
271 271 272 272 272 272 273 273 272 271 268 266 266 266 265 264 264 264 263 262 261 258 254 254 255 256 257 258 257 257 257 257 256 257 258 260 261 261 262 262 263 264 266
270 271 272 272 272 273 273 272 270 270 269 266 266 267 267 266 265 264 264 262 261 258 256 255 256 257 258 257 256 256 257 257 257 258 259 260 261 262 262 263 264 265 267
271 271 272 273 273 273 272 271 269 269 268 266 267 268 268 268 267 265 263 261 260 259 258 259 258 257 256 255 256 257 257 258 258 258 260 261 262 262 262 263 264 265 266
270 272 273 272 272 271 270 269 268 268 268 268 267 268 268 268 267 266 264 262 261 261 261 262 261 259 257 256 256 257 258 259 259 260 261 263 263 263 263 263 264 266 268
270 272 273 272 272 271 269 268 269 268 268 267 267 269 270 269 268 267 265 263 262 263 262 261 260 259 257 257 257 257 258 259 259 260 261 262 263 263 263 264 264 265 267
270 272 273 273 273 272 270 269 269 269 268 269 269 269 269 269 268 267 266 265 264 264 263 261 260 260 259 258 257 256 257 259 260 261 261 262 263 264 264 264 265 265 266
271 272 273 273 273 272 270 271 271 270 270 271 271 269 269 269 269 269 268 267 266 265 264 261 259 258 259 259 258 257 258 259 261 261 261 262 263 264 264 264 265 265 265
Height
5835 5835 5835 5834 5834 5833 5833 5832 5832 5831 5831 5830 5830 5829 5829 5829 5828 5828 5828 5828 5828 5828 5828 5828 5829 5829 5829 5830 5830 5831 5832 5832 5833 5834 5834 5834 5834 5835 5835 5835 5834 5834 5834
5830 5830 5830 5829 5829 5828 5828 5827 5827 5826 5825 5825 5824 5824 5823 5823 5823 5823 5823 5823 5823 5823 5824 5824 5824 5824 5825 5825 5826 5827 5827 5828 5829 5830 5830 5830 5831 5831 5831 5831 5831 5831 5830
5825 5825 5824 5824 5824 5823 5822 5822 5821 5820 5819 5819 5818 5818 5818 5818 5818 5818 5818 5818 5818 5818 5818 5819 5819 5820 5820 5821 5821 5822 5823 5824 5825 5826 5826 5826 5827 5827 5827 5827 5827 5827 5826
5819 5818 5818 5818 5817 5817 5816 5816 5815 5814 5814 5813 5812 5812 5812 5812 5812 5812 5812 5812 5812 5812 5812 5813 5814 5815 5816 5816 5817 5817 5818 5819 5820 5821 5822 5822 5823 5823 5823 5823 5823 5823 5823
5812 5812 5812 5811 5810 5810 5809 5809 5809 5808 5807 5807 5806 5806 5806 5806 5806 5806 5806 5806 5806 5806 5806 5807 5808 5809 5810 5811 5812 5813 5813 5814 5815 5816 5817 5818 5818 5818 5819 5819 5819 5819 5819
5805 5805 5804 5803 5803 5803 5802 5802 5802 5801 5801 5800 5800 5800 5800 5799 5799 5799 5799 5800 5800 5800 5801 5802 5803 5804 5805 5806 5806 5807 5808 5808 5809 5810 5811 5812 5813 5813 5814 5814 5815 5815 5815
5797 5796 5796 5795 5795 5795 5795 5795 5794 5794 5794 5793 5793 5793 5793 5793 5792 5792 5793 5793 5794 5794 5795 5796 5797 5798 5799 5800 5800 5801 5802 5803 5804 5805 5806 5806 5807 5808 5808 5809 5809 5810 5810
5788 5788 5788 5787 5787 5787 5787 5787 5787 5786 5786 5786 5786 5786 5786 5786 5785 5785 5786 5786 5787 5788 5789 5790 5791 5791 5792 5793 5794 5795 5796 5797 5798 5799 5800 5801 5802 5802 5803 5803 5803 5804 5804
5780 5780 5780 5779 5779 5779 5779 5779 5779 5778 5778 5778 5778 5778 5778 5778 5778 5778 5778 5779 5780 5781 5782 5783 5784 5785 5786 5787 5788 5789 5789 5790 5791 5792 5794 5795 5796 5796 5797 5797 5798 5798 5798
5772 5771 5771 5771 5771 5771 5771 5771 5770 5770 5770 5770 5770 5770 5770 5770 5770 5770 5770 5771 5772 5773 5774 5775 5776 5777 5778 5779 5781 5782 5783 5784 5785 5786 5787 5788 5789 5790 5791 5791 5791 5792 5792
5763 5763 5762 5762 5762 5762 5762 5762 5762 5762 5762 5761 5761 5761 5761 5761 5761 5762 5762 5763 5764 5765 5767 5767 5768 5770 5771 5772 5773 5775 5776 5776 5777 5778 5780 5781 5782 5783 5784 5784 5785 5785 5785
5755 5754 5754 5753 5753 5753 5753 5753 5753 5753 5753 5753 5753 5753 5753 5753 5753 5753 5754 5755 5756 5757 5758 5759 5760 5761 5763 5764 5766 5767 5768 5769 5771 5772 5773 5774 5775 5776 5777 5777 5777 5778 5778
5746 5745 5745 5745 5745 5745 5745 5744 5744 5744 5744 5744 5744 5744 5744 5744 5744 5745 5745 5746 5747 5748 5750 5751 5752 5753 5755 5756 5757 5759 5760 5761 5763 5764 5765 5767 5767 5768 5769 5769 5770 5770 5770
5736 5736 5736 5736 5736 5735 5735 5735 5735 5735 5735 5735 5735 5735 5735 5735 5735 5735 5736 5737 5738 5739 5741 5742 5744 5745 5746 5748 5749 5750 5752 5753 5754 5756 5757 5758 5758 5759 5760 5761 5762 5762 5763
5727 5727 5727 5726 5726 5726 5726 5726 5726 5726 5725 5725 5725 5725 5725 5726 5726 5726 5726 5727 5729 5730 5732 5733 5735 5737 5738 5739 5741 5742 5743 5744 5746 5747 5748 5749 5750 5751 5752 5752 5753 5754 5754
5717 5717 5717 5717 5716 5716 5716 5716 5716 5715 5715 5715 5715 5715 5716 5716 5716 5716 5717 5718 5719 5721 5722 5724 5726 5728 5729 5730 5732 5733 5734 5735 5737 5738 5739 5740 5741 5742 5742 5743 5744 5744 5745
5708 5707 5707 5707 5707 5707 5707 5706 5706 5706 5705 5706 5706 5706 5707 5707 5707 5707 5708 5708 5709 5711 5713 5714 5716 5718 5719 5721 5722 5724 5725 5726 5727 5728 5730 5731 5732 5733 5733 5734 5734 5734 5735
5698 5698 5698 5698 5698 5698 5697 5697 5696 5696 5696 5696 5696 5696 5697 5697 5697 5698 5698 5699 5700 5701 5703 5705 5707 5709 5710 5711 5712 5714 5715 5716 5717 5719 5720 5721 5722 5723 5724 5724 5725 5725 5725
5690 5689 5689 5689 5689 5688 5688 5687 5687 5686 5686 5687 5687 5687 5687 5687 5688 5688 5689 5690 5691 5692 5694 5695 5697 5699 5700 5701 5702 5703 5705 5706 5707 5708 5710 5711 5711 5712 5713 5714 5714 5715 5715
5681 5681 5680 5680 5680 5679 5678 5678 5677 5677 5677 5677 5678 5678 5678 5678 5679 5679 5680 5680 5681 5682 5684 5685 5687 5688 5689 5691 5692 5693 5694 5696 5697 5698 5699 5700 5701 5701 5702 5703 5703 5704 5704
5672 5672 5671 5671 5670 5670 5669 5669 5668 5668 5668 5668 5669 5669 5669 5669 5669 5670 5670 5670 5671 5673 5674 5675 5676 5678 5679 5680 5681 5683 5684 5685 5686 5687 5688 5689 5690 5690 5691 5692 5692 5693 5693
5663 5662 5662 5661 5661 5660 5660 5659 5659 5659 5659 5660 5660 5660 5659 5659 5660 5660 5660 5661 5662 5663 5664 5665 5666 5667 5668 5669 5671 5672 5673 5674 5675 5676 5677 5678 5679 5679 5680 5680 5681 5681 5681
5654 5653 5653 5652 5652 5651 5650 5650 5650 5650 5650 5650 5651 5650 5650 5650 5650 5650 5650 5651 5652 5653 5653 5654 5655 5656 5657 5658 5660 5661 5662 5663 5664 5665 5666 5666 5667 5668 5669 5669 5670 5670 5670
5645 5645 5644 5644 5643 5642 5642 5641 5641 5641 5641 5641 5641 5641 5641 5640 5640 5640 5640 5641 5641 5642 5642 5643 5644 5645 5646 5647 5648 5649 5650 5652 5652 5653 5654 5655 5656 5656 5657 5658 5658 5659 5659
5637 5637 5636 5635 5635 5634 5633 5633 5633 5632 5632 5632 5631 5631 5631 5630 5630 5630 5630 5630 5631 5631 5631 5632 5632 5633 5634 5635 5636 5638 5639 5640 5641 5642 5642 5643 5644 5645 5646 5646 5647 5647 5647
5629 5629 5628 5627 5627 5626 5625 5625 5624 5624 5623 5622 5621 5621 5621 5620 5620 5620 5620 5620 5620 5620 5620 5620 5620 5621 5622 5623 5625 5626 5627 5629 5629 5630 5631 5632 5633 5634 5634 5635 5636 5636 5637